EN

Hourly Weather Al Khiyam

Today, 24 January, Sunday

Time Temperature Precipitation Wind Pressure Humidity
00:00 +7°C° 0 mm 3 mps 714 mmHg 38%
01:00 +6°C° 0 mm 4 mps 714 mmHg 37%
02:00 +6°C° 0 mm 4 mps 713 mmHg 37%
03:00 +7°C° 0 mm 3 mps 713 mmHg 37%
04:00 +5°C° 0 mm 3 mps 713 mmHg 37%
05:00 +5°C° 0 mm 3 mps 713 mmHg 37%
06:00 +7°C° 0 mm 3 mps 714 mmHg 40%
07:00 +8°C° 0 mm 3 mps 714 mmHg 42%
08:00 +9°C° 0 mm 3 mps 715 mmHg 44%
09:00 +10°C° 0 mm 3 mps 715 mmHg 41%
10:00 +12°C° 0 mm 3 mps 715 mmHg 38%
11:00 +13°C° 0 mm 3 mps 715 mmHg 35%
12:00 +14°C° 0 mm 3 mps 715 mmHg 35%
13:00 +14°C° 0 mm 3 mps 714 mmHg 36%
14:00 +14°C° 0 mm 3 mps 714 mmHg 37%
15:00 +13°C° 0 mm 2 mps 714 mmHg 45%
16:00 +10°C° 0 mm 2 mps 713 mmHg 53%
17:00 +10°C° 0 mm 1 mps 713 mmHg 62%
18:00 +9°C° 0 mm 1 mps 713 mmHg 59%
19:00 +8°C° 0 mm 2 mps 714 mmHg 57%
20:00 +8°C° 0 mm 2 mps 714 mmHg 55%
21:00 +8°C° 0 mm 2 mps 714 mmHg 53%
22:00 +7°C° 0 mm 2 mps 714 mmHg 51%
23:00 +7°C° 0 mm 2 mps 714 mmHg 48%

Tomorrow, 25 January, Monday

Time Temperature Precipitation Wind Pressure Humidity
00:00 +7°C° 0 mm 2 mps 713 mmHg 48%
01:00 +7°C° 0 mm 2 mps 713 mmHg 47%
02:00 +7°C° 0 mm 2 mps 713 mmHg 46%
03:00 +7°C° 0 mm 1 mps 713 mmHg 46%
04:00 +7°C° 0 mm 1 mps 713 mmHg 46%
05:00 +7°C° 0 mm 1 mps 713 mmHg 46%
06:00 +8°C° 0 mm 1 mps 713 mmHg 48%
07:00 +10°C° 0 mm 1 mps 714 mmHg 51%
08:00 +11°C° 0 mm 1 mps 715 mmHg 53%
09:00 +12°C° 0 mm 1 mps 715 mmHg 48%
10:00 +14°C° 0 mm 1 mps 715 mmHg 43%
11:00 +15°C° 0 mm 1 mps 715 mmHg 38%
12:00 +15°C° 0 mm 2 mps 715 mmHg 39%
13:00 +15°C° 0 mm 2 mps 715 mmHg 41%
14:00 +16°C° 0 mm 2 mps 714 mmHg 42%
15:00 +14°C° 0 mm 1 mps 714 mmHg 52%
16:00 +12°C° 0 mm 1 mps 714 mmHg 61%
17:00 +11°C° 0 mm 1 mps 714 mmHg 71%
18:00 +10°C° 0 mm 1 mps 714 mmHg 70%
19:00 +10°C° 0 mm 1 mps 714 mmHg 70%
20:00 +9°C° 0 mm 1 mps 714 mmHg 69%
21:00 +9°C° 0 mm 1 mps 714 mmHg 67%
22:00 +9°C° 0 mm 1 mps 714 mmHg 65%
23:00 +9°C° 0 mm 1 mps 714 mmHg 63%

Day after tomorrow, 26 January, Tuesday

Time Temperature Precipitation Wind Pressure Humidity
00:00 +9°C° 0 mm 1 mps 714 mmHg 61%
01:00 +9°C° 0 mm 1 mps 714 mmHg 59%
02:00 +9°C° 0 mm 1 mps 714 mmHg 58%
03:00 +9°C° 0 mm 1 mps 714 mmHg 56%
04:00 +9°C° 0 mm 1 mps 713 mmHg 55%
05:00 +9°C° 0 mm 1 mps 713 mmHg 54%
06:00 +10°C° 0 mm 1 mps 714 mmHg 55%
07:00 +11°C° 0 mm 1 mps 714 mmHg 56%
08:00 +12°C° 0 mm 1 mps 714 mmHg 58%
09:00 +13°C° 0 mm 1 mps 715 mmHg 51%
10:00 +15°C° 0 mm 1 mps 715 mmHg 44%
11:00 +16°C° 0 mm 1 mps 715 mmHg 37%
12:00 +18°C° 0 mm 1 mps 714 mmHg 39%
13:00 +18°C° 0 mm 1 mps 714 mmHg 41%
14:00 +17°C° 0 mm 2 mps 713 mmHg 43%
15:00 +15°C° 0 mm 1 mps 713 mmHg 51%
16:00 +14°C° 0 mm 1 mps 712 mmHg 59%
17:00 +12°C° 0 mm 1 mps 712 mmHg 68%
18:00 +12°C° 0 mm 1 mps 712 mmHg 66%
19:00 +12°C° 0 mm 1 mps 712 mmHg 64%
20:00 +12°C° 0 mm 1 mps 712 mmHg 61%
21:00 +12°C° 0 mm 2 mps 712 mmHg 58%
22:00 +10°C° 0 mm 2 mps 711 mmHg 55%
23:00 +10°C° 0 mm 2 mps 711 mmHg 52%

27 January, Wednesday

Time Temperature Precipitation Wind Pressure Humidity
00:00 +10°C° 0 mm 2 mps 710 mmHg 51%
01:00 +10°C° 0 mm 2 mps 710 mmHg 50%
02:00 +10°C° 0 mm 2 mps 709 mmHg 48%
03:00 +10°C° 0 mm 2 mps 709 mmHg 48%
04:00 +10°C° 0 mm 2 mps 708 mmHg 48%
05:00 +10°C° 0 mm 2 mps 708 mmHg 48%
06:00 +10°C° 0 mm 2 mps 708 mmHg 50%
07:00 +12°C° 0 mm 2 mps 707 mmHg 52%
08:00 +13°C° 0 mm 2 mps 707 mmHg 54%
09:00 +13°C° 0 mm 3 mps 707 mmHg 51%
10:00 +14°C° 0 mm 4 mps 707 mmHg 48%
11:00 +15°C° 0 mm 4 mps 707 mmHg 45%
12:00 +15°C° 0 mm 5 mps 707 mmHg 52%
13:00 +14°C° 0 mm 6 mps 706 mmHg 58%
14:00 +14°C° 0 mm 7 mps 706 mmHg 65%
15:00 +12°C° 0.2 mm 7 mps 706 mmHg 73%
16:00 +11°C° 0.2 mm 7 mps 706 mmHg 81%
17:00 +9°C° 0.2 mm 7 mps 706 mmHg 89%
18:00 +9°C° 0.7 mm 7 mps 706 mmHg 89%
19:00 +9°C° 0.7 mm 8 mps 706 mmHg 90%
20:00 +7°C° 0.7 mm 8 mps 707 mmHg 90%
21:00 +8°C° 0.5 mm 7 mps 707 mmHg 90%
22:00 +8°C° 0.5 mm 6 mps 707 mmHg 91%
23:00 +8°C° 0.5 mm 5 mps 707 mmHg 91%

28 January, Thursday

Time Temperature Precipitation Wind Pressure Humidity
00:00 +8°C° 0.5 mm 5 mps 707 mmHg 91%
01:00 +8°C° 0.5 mm 5 mps 707 mmHg 92%
02:00 +8°C° 0.5 mm 5 mps 707 mmHg 92%
03:00 +8°C° 1.1 mm 5 mps 706 mmHg 93%
04:00 +7°C° 1.1 mm 5 mps 706 mmHg 93%
05:00 +7°C° 1.1 mm 6 mps 706 mmHg 93%
06:00 +7°C° 1.2 mm 6 mps 706 mmHg 93%
07:00 +6°C° 1.2 mm 7 mps 707 mmHg 93%
08:00 +6°C° 1.2 mm 7 mps 707 mmHg 92%
09:00 +6°C° 1 mm 7 mps 707 mmHg 91%
10:00 +6°C° 1 mm 7 mps 707 mmHg 90%
11:00 +6°C° 1 mm 7 mps 708 mmHg 89%
12:00 +6°C° 0.6 mm 7 mps 708 mmHg 87%
13:00 +6°C° 0.6 mm 8 mps 708 mmHg 86%
14:00 +6°C° 0.6 mm 9 mps 708 mmHg 84%
15:00 +5°C° 0.6 mm 8 mps 708 mmHg 84%
16:00 +5°C° 0.6 mm 8 mps 708 mmHg 83%
17:00 +5°C° 0.6 mm 8 mps 708 mmHg 83%
18:00 +5°C° 0.4 mm 8 mps 709 mmHg 83%
19:00 +5°C° 0.4 mm 7 mps 709 mmHg 83%
20:00 +5°C° 0.4 mm 7 mps 709 mmHg 83%

29 January, Friday

Time Temperature Precipitation Wind Pressure Humidity
Show more